Tracking 18951 objects as of 21-Jan-2018
HD Live streaming from Space Station
objects crossing your sky now

SL-12 R/B(2)

Track SL-12 R/B(2) now!


NORAD ID: 23401
Int'l Code: 1994-076F
Perigee: 19,069.9 km
Apogee: 19,132.1 km
Inclination: 64.0 °
Period: 674.3 minutes
Semi major axis: 25472 km
RCS: 2.156 m2 (large)
Launch date: November 20, 1994
Source: Commonwealth of Independent States (former USSR) (CIS)
Launch site: TYURATAM MISSILE AND SPACE COMPLEX (TTMTR)

Note: This is a ROCKET BODY
aabbcc
Your satellite tracking list
Your tracking list is empty




NASA's NSSDC Master Catalog

Two Line Element Set (TLE):
1 23401U 94076F   18020.82552812 +.00000071 +00000-0 +00000-0 0  9998
2 23401 063.9696 173.5502 0012208 308.6179 256.6161 02.13554202180663
Source of the keplerian elements: AFSPC